[[[{"header":{"parameterUnit":"kt","parameterCategory":2,"dx":1,"dy":1,"la1":30.253999710083008,"la2":30.299108505249023,"lo1":-89.0895004272461,"lo2":-89.04439544677734,"nx":28,"ny":28,"refTime":"2022-10-25T21:00:00:Z","depth":0,"parameterNumber":1,"parameterNumberName":"U-component_of_WINDS"},"data":[-7.7117,-7.7222,-7.7189,-7.7294,-7.7282,-7.7347,-7.736,-7.7374,-7.7376,-7.745,-7.7487,-7.7465,-7.7454,-7.7491,-7.7529,-7.7518,-7.7537,-7.7598,-7.7575,-7.7331,-7.7295,-7.726,-7.7233,-7.7603,-7.7603,-7.7832,-7.7834,-7.7836,-7.6943,-7.6932,-7.6978,-7.7,-7.7038,-7.696,-7.6971,-7.7008,-7.7069,-7.7072,-7.7107,-7.717,-7.7215,-7.7182,-7.722,-7.7268,-7.7233,-7.7281,-7.7277,-7.7276,-7.7014,-7.6985,-7.7309,-7.7309,-7.7309,-7.7309,-7.7308,-7.7308,-7.6616,-7.668,-7.6673,-7.6722,-7.6723,-7.6738,-7.6793,-7.6764,-7.6808,-7.6843,-7.6794,-7.6862,-7.6859,-7.6888,-7.6889,-7.6941,-7.6882,-7.6924,-7.6934,-7.6946,-7.6963,-7.6638,-7.6946,-7.6945,-7.6944,-7.6943,-7.6942,0,-7.6366,-7.6334,-7.6374,-7.6406,-7.6439,-7.646,-7.6474,-7.6507,-7.6426,-7.6466,-7.652,-7.6546,-7.6597,-7.6644,-7.6672,-7.6664,-7.6586,-7.6574,-7.6602,-7.6627,-7.6646,-7.6637,-7.6212,-7.6565,-7.6562,-7.6559,-7.6557,-7.6556,-7.6034,-7.6112,-7.6088,-7.6121,-7.612,-7.6175,-7.62,-7.6123,-7.6153,-7.6158,-7.6219,-7.6265,-7.6297,-7.639,-7.6354,-7.6392,-7.6354,-7.6493,-7.6359,-7.638,-7.6356,-7.6352,-7.636,-7.652,-7.6525,-7.6528,-7.6531,0,-7.585,-7.5794,-7.5904,-7.5871,-7.5866,-7.5952,-7.5924,-7.5984,-7.5948,-7.6026,-7.6039,-7.5983,-7.6037,-7.5977,-7.6028,-7.5995,-7.6137,-7.6099,-7.6137,-7.6126,-7.6245,-7.6235,-7.6638,-7.6687,-7.6303,-7.6306,-7.6309,0,-7.5544,-7.565,-7.5559,-7.5626,-7.5741,-7.5659,-7.5775,-7.5754,-7.5748,-7.5809,-7.5709,-7.5769,-7.5682,-7.5733,-7.5684,-7.5789,-7.5798,-7.578,-7.5765,-7.5789,-7.5791,-7.5803,-7.5786,-7.573,-7.5728,-7.5726,-7.5724,0,-7.5263,-7.5337,-7.5445,-7.5452,-7.5428,-7.5481,-7.5473,-7.5465,-7.5491,-7.5514,-7.553,-7.5564,-7.5582,-7.561,-7.5548,-7.5459,-7.5674,-7.554,-7.5655,-7.5657,-7.5705,-7.5703,-7.6076,-7.5722,-7.5721,-7.5721,-7.572,0,-7.5006,-7.5031,-7.5196,-7.5172,-7.5195,-7.5266,-7.5293,-7.5339,-7.5338,-7.5312,-7.5329,-7.5255,-7.5341,-7.5212,-7.533,-7.5233,-7.5257,-7.5246,-7.5253,-7.5257,-7.5114,-7.5333,-7.5693,-7.5729,-7.5262,-7.5258,-7.5254,0,-7.4699,-7.485,-7.4779,-7.4938,-7.4998,-7.4881,-7.4958,-7.496,-7.493,-7.4977,-7.4944,-7.4999,-7.489,-7.4898,-7.4965,-7.4933,-7.506,-7.4914,-7.4985,-7.4988,-7.4989,-7.532,-7.5388,-7.5621,-7.5204,-7.521,-7.5213,0,-7.4454,-7.4421,-7.4455,-7.4459,-7.4447,-7.4497,-7.4586,-7.4621,-7.4657,-7.4669,-7.4742,-7.4817,-7.4737,-7.4753,-7.4695,-7.4768,-7.4972,-7.4673,-7.4671,-7.4729,-7.5174,-7.5239,-7.5278,-7.4917,-7.4923,-7.4928,-7.5174,0,-7.408,-7.4147,-7.4234,-7.4248,-7.4276,-7.4371,-7.4305,-7.4343,-7.4285,-7.4251,-7.4356,-7.4341,-7.4377,-7.4405,-7.4349,-7.4533,-7.4492,-7.4407,-7.4276,-7.4494,-7.4574,-7.4606,-7.4164,-7.4159,-7.4156,-7.4153,0,0,-7.3801,-7.3895,-7.3813,-7.3896,-7.3915,-7.379,-7.3898,-7.3902,-7.3914,-7.393,-7.3856,-7.396,-7.3951,-7.4087,-7.4149,-7.4164,-7.4191,-7.4117,-7.4391,-7.4418,-7.4443,-7.4529,-7.4563,-7.4147,-7.4145,-7.4144,-7.4143,0,-7.365,-7.3642,-7.3749,-7.3749,-7.3746,-7.3704,-7.373,-7.3705,-7.3688,-7.379,-7.3686,-7.3741,-7.3826,-7.383,-7.3843,-7.4099,-7.4018,-7.4115,-7.4275,-7.4357,-7.4389,-7.4417,-7.4508,-7.4542,-7.4134,-7.4135,-7.4135,0,-7.3396,-7.3377,-7.3421,-7.3457,-7.3454,-7.3519,-7.3366,-7.3441,-7.3489,-7.3348,-7.3451,-7.3434,-7.3433,-7.357,-7.3628,-7.3563,-7.3864,-7.3757,-7.3777,-7.3782,-7.3859,-7.3897,-7.3931,-7.3484,-7.3482,-7.348,0,0,-7.3275,-7.3336,-7.329,-7.342,-7.3425,-7.3363,-7.3391,-7.3334,-7.3336,-7.3337,-7.3312,-7.3317,-7.3365,-7.3399,-7.3441,-7.36,-7.3593,-7.3679,-7.371,-7.3735,-7.3754,-7.3837,-7.3875,-7.3473,-7.3473,-7.3472,0,0,-7.3217,-7.3169,-7.3108,-7.325,-7.3255,-7.3218,-7.33,-7.3226,-7.3256,-7.3238,-7.3146,-7.3143,-7.3269,-7.3256,-7.3163,-7.3393,-7.3266,-7.3286,-7.3397,-7.3435,-7.3465,-7.3465,-7.3004,0,0,0,0,0,-7.3027,-7.3174,-7.312,-7.3134,-7.3179,-7.3249,-7.3254,-7.3181,-7.3092,-7.3159,-7.3126,-7.3036,-7.3187,-7.3103,-7.3118,-7.3222,-7.3376,-7.3393,-7.3409,-7.3589,-7.3629,-7.3663,0,0,0,0,0,0,-7.3032,-7.3049,-7.3116,-7.3087,-7.3096,-7.3242,-7.3076,-7.306,-7.3083,-7.3064,-7.3045,-7.3036,-7.2975,-7.309,-7.3105,-7.3206,-7.2999,-7.3383,-7.3397,-7.341,-7.3603,-7.3636,-7.3664,0,0,0,0,0,-7.3035,-7.3049,-7.314,-7.3084,-7.3092,-7.3031,-7.3069,-7.3055,-7.3071,-7.3021,-7.3008,-7.3014,-7.298,-7.2987,-7.3098,-7.3201,-7.2988,-7.2994,-7.3392,-7.3404,-7.3414,-7.3619,0,0,0,0,0,0,-7.3038,-7.3036,-7.314,-7.3139,-7.3023,-7.3021,-7.3018,-7.3051,-7.3025,-7.3014,-7.2985,-7.297,-7.2985,-7.299,-7.2996,-7.3203,-7.2979,-7.2985,-7.2989,-7.3401,-7.341,-7.3418,0,0,0,0,0,0,-7.3028,-7.3037,-7.3139,-7.3066,-7.3056,-7.3013,-7.301,-7.3093,-7.3026,-7.299,-7.2977,-7.2979,-7.2976,-7.2993,-7.2997,-7.313,-7.2972,-7.2978,-7.2982,-7.2984,-7.3408,-7.3415,0,0,0,0,0,0,-7.3031,-7.3038,-7.3065,-7.3058,-7.305,-7.3041,-7.3085,-7.3135,-7.2963,-7.2993,-7.2945,-7.2937,-7.2982,-7.2984,-7.2998,-7.313,-7.313,-7.2972,-7.2976,-7.2979,-7.2981,0,0,0,0,0,0,0,-7.3032,-7.3001,-7.3141,-7.3052,-7.3044,-7.3137,-7.3137,-7.3137,-7.2961,-7.2954,-7.2947,-7.2941,-7.294,-7.2946,-7.2952,-7.3131,0,0,-7.2972,-7.2975,0,0,0,0,0,0,0,0,-7.2996,-7.3,-7.3141,-7.3141,-7.3141,-7.3137,-7.3137,-7.3137,-7.296,-7.2954,-7.2949,-7.2943,-7.2942,-7.2947,-7.2952,0,0,0,0,0,0,0,0,0,0,0,0,0,0,0,-7.3141,-7.3141,0,-7.3137,-7.3137,-7.3137,-7.2959,-7.2955,-7.295,-7.2946,-7.2943,-7.2947,-7.2951,0,0,0,0,0,0,0,0,0,0,0,0,0,0,0,0,0,0,0,0,0,0,0,0,0,0,0,0,0,0,0,0,0,0,0,0,0,0,0,0,0,0,0,0,0,0,0,0,0,0,0,0,0,0,0,0,0,0,0,0,0,0,0,0,0,0,0,0,0]}],[{"header":{"parameterUnit":"kt","parameterCategory":2,"dx":1,"dy":1,"la1":30.253999710083008,"la2":30.299108505249023,"lo1":-89.0895004272461,"lo2":-89.04439544677734,"nx":28,"ny":28,"refTime":"2022-10-25T21:00:00:Z","depth":0,"parameterNumber":2,"parameterNumberName":"V-component_of_WINDS"},"data":[-4.7726,-4.7755,-4.7741,-4.7767,-4.7759,-4.7774,-4.7775,-4.7774,-4.777,-4.7787,-4.7794,-4.7782,-4.7772,-4.7776,-4.7783,-4.7777,-4.7781,-4.7801,-4.7791,-4.7714,-4.7702,-4.7691,-4.7683,-4.7802,-4.7802,-4.7873,-4.7874,-4.7874,-4.7667,-4.7659,-4.7669,-4.767,-4.7678,-4.7649,-4.7647,-4.7656,-4.7671,-4.7666,-4.7672,-4.7686,-4.7695,-4.7678,-4.7683,-4.7696,-4.7683,-4.7699,-4.7697,-4.7696,-4.7613,-4.7605,-4.7709,-4.7709,-4.7709,-4.7709,-4.7709,-4.7709,-4.7556,-4.7575,-4.7567,-4.7578,-4.7574,-4.7575,-4.759,-4.7575,-4.7585,-4.759,-4.7571,-4.7588,-4.7581,-4.7581,-4.7578,-4.759,-4.757,-4.7583,-4.7586,-4.7589,-4.7595,-4.7493,-4.759,-4.759,-4.759,-4.759,-4.7589,0,-4.7471,-4.7457,-4.7467,-4.7472,-4.748,-4.7482,-4.7482,-4.7491,-4.7459,-4.7469,-4.7481,-4.7486,-4.7496,-4.7506,-4.7508,-4.7502,-4.7474,-4.747,-4.7478,-4.7488,-4.7495,-4.749,-4.7355,-4.7467,-4.7466,-4.7465,-4.7465,-4.7464,-4.7357,-4.7382,-4.7367,-4.7376,-4.7372,-4.7387,-4.7393,-4.7362,-4.737,-4.7365,-4.7383,-4.7393,-4.74,-4.7422,-4.7406,-4.7413,-4.7399,-4.7443,-4.74,-4.7407,-4.7399,-4.7398,-4.7399,-4.7453,-4.7454,-4.7455,-4.7456,0,-4.7295,-4.7272,-4.7305,-4.7289,-4.7285,-4.7312,-4.7297,-4.7315,-4.7299,-4.7321,-4.7325,-4.7301,-4.7314,-4.729,-4.7301,-4.7287,-4.7329,-4.7316,-4.7331,-4.7327,-4.7363,-4.736,-4.7488,-4.7503,-4.738,-4.7381,-4.7382,0,-4.7189,-4.7222,-4.7186,-4.7207,-4.7242,-4.7211,-4.7247,-4.7238,-4.7232,-4.7249,-4.7213,-4.723,-4.7197,-4.721,-4.7191,-4.7221,-4.7223,-4.7214,-4.7209,-4.7218,-4.7219,-4.7221,-4.7215,-4.7197,-4.7196,-4.7196,-4.7195,0,-4.7093,-4.7114,-4.7147,-4.7148,-4.7135,-4.7151,-4.7146,-4.7139,-4.7146,-4.715,-4.7153,-4.7161,-4.7165,-4.7171,-4.7146,-4.7117,-4.7183,-4.7138,-4.7174,-4.7175,-4.719,-4.7189,-4.7309,-4.7194,-4.7194,-4.7194,-4.7194,0,-4.7004,-4.701,-4.7062,-4.705,-4.7057,-4.7079,-4.7084,-4.7098,-4.7094,-4.7083,-4.7086,-4.706,-4.7085,-4.7042,-4.7076,-4.7045,-4.7051,-4.7045,-4.7048,-4.7048,-4.7001,-4.7072,-4.7188,-4.7199,-4.7049,-4.7047,-4.7046,0,-4.69,-4.6947,-4.6922,-4.6972,-4.6991,-4.6949,-4.6973,-4.6971,-4.6959,-4.6973,-4.6959,-4.6975,-4.6939,-4.694,-4.696,-4.6947,-4.6987,-4.6941,-4.696,-4.6961,-4.6961,-4.7068,-4.7092,-4.7165,-4.7031,-4.7032,-4.7033,0,-4.6816,-4.6801,-4.6812,-4.6812,-4.6805,-4.6821,-4.6849,-4.6859,-4.6869,-4.6871,-4.6893,-4.6916,-4.6888,-4.6892,-4.6872,-4.6894,-4.6959,-4.6862,-4.6862,-4.688,-4.7021,-4.7043,-4.7055,-4.694,-4.6942,-4.6943,-4.7021,0,-4.6686,-4.6708,-4.6737,-4.674,-4.6748,-4.678,-4.6755,-4.6767,-4.6747,-4.6734,-4.6766,-4.676,-4.677,-4.6778,-4.6759,-4.6817,-4.6804,-4.6775,-4.6732,-4.6803,-4.6828,-4.6838,-4.6697,-4.6696,-4.6695,-4.6694,0,0,-4.6591,-4.6622,-4.6594,-4.6621,-4.6627,-4.6584,-4.662,-4.662,-4.6623,-4.6627,-4.6603,-4.6634,-4.663,-4.6673,-4.6693,-4.6697,-4.6705,-4.6682,-4.677,-4.6778,-4.6786,-4.6813,-4.6824,-4.6691,-4.6691,-4.6691,-4.669,0,-4.6539,-4.6537,-4.6573,-4.6572,-4.657,-4.6555,-4.6564,-4.6555,-4.6548,-4.6581,-4.6545,-4.6562,-4.6589,-4.6589,-4.6593,-4.6676,-4.6649,-4.6681,-4.6734,-4.6759,-4.6769,-4.6778,-4.6807,-4.6817,-4.6687,-4.6688,-4.6688,0,-4.6452,-4.6445,-4.6461,-4.6473,-4.6471,-4.6493,-4.6441,-4.6467,-4.6481,-4.6434,-4.6468,-4.6461,-4.646,-4.6504,-4.6522,-4.6501,-4.6598,-4.6564,-4.6571,-4.6572,-4.6595,-4.6608,-4.6619,-4.6474,-4.6474,-4.6473,0,0,-4.641,-4.6431,-4.6415,-4.646,-4.6461,-4.644,-4.645,-4.643,-4.643,-4.6431,-4.6422,-4.6423,-4.6437,-4.6448,-4.6461,-4.6513,-4.651,-4.6539,-4.6549,-4.6557,-4.6563,-4.6588,-4.6601,-4.6471,-4.6471,-4.6471,0,0,-4.639,-4.6374,-4.6353,-4.6402,-4.6404,-4.6391,-4.6419,-4.6394,-4.6404,-4.6397,-4.6366,-4.6365,-4.6406,-4.6401,-4.6371,-4.6445,-4.6403,-4.641,-4.6447,-4.646,-4.6469,-4.647,-4.6318,0,0,0,0,0,-4.6324,-4.6375,-4.6357,-4.6362,-4.6378,-4.6401,-4.6403,-4.6379,-4.6349,-4.6371,-4.636,-4.633,-4.6378,-4.6351,-4.6356,-4.639,-4.6439,-4.6445,-4.645,-4.651,-4.6523,-4.6534,0,0,0,0,0,0,-4.6326,-4.6332,-4.6355,-4.6346,-4.6349,-4.6399,-4.6343,-4.6338,-4.6346,-4.634,-4.6333,-4.633,-4.6309,-4.6347,-4.6352,-4.6384,-4.6317,-4.6442,-4.6446,-4.6451,-4.6515,-4.6525,-4.6535,0,0,0,0,0,-4.6327,-4.6332,-4.6365,-4.6345,-4.6348,-4.6328,-4.6341,-4.6336,-4.6342,-4.6325,-4.6321,-4.6323,-4.6311,-4.6313,-4.635,-4.6383,-4.6313,-4.6315,-4.6445,-4.6448,-4.6452,-4.652,0,0,0,0,0,0,-4.6328,-4.6328,-4.6365,-4.6365,-4.6324,-4.6324,-4.6323,-4.6335,-4.6326,-4.6323,-4.6313,-4.6308,-4.6313,-4.6314,-4.6316,-4.6384,-4.631,-4.6312,-4.6313,-4.6447,-4.645,-4.6453,0,0,0,0,0,0,-4.6325,-4.6328,-4.6365,-4.634,-4.6337,-4.6321,-4.6321,-4.6348,-4.6327,-4.6315,-4.631,-4.6311,-4.631,-4.6315,-4.6317,-4.6361,-4.6308,-4.631,-4.6311,-4.6312,-4.645,-4.6452,0,0,0,0,0,0,-4.6326,-4.6328,-4.634,-4.6338,-4.6335,-4.6332,-4.6345,-4.6363,-4.6306,-4.6316,-4.63,-4.6297,-4.6311,-4.6312,-4.6317,-4.6361,-4.6361,-4.6308,-4.6309,-4.631,-4.6311,0,0,0,0,0,0,0,-4.6326,-4.6315,-4.6365,-4.6336,-4.6333,-4.6364,-4.6364,-4.6364,-4.6305,-4.6303,-4.6301,-4.6299,-4.6297,-4.6299,-4.6301,-4.6361,0,0,-4.6308,-4.6309,0,0,0,0,0,0,0,0,-4.6313,-4.6314,-4.6365,-4.6365,-4.6365,-4.6364,-4.6364,-4.6364,-4.6305,-4.6303,-4.6301,-4.6299,-4.6298,-4.63,-4.6301,0,0,0,0,0,0,0,0,0,0,0,0,0,0,0,-4.6365,-4.6365,0,-4.6364,-4.6364,-4.6364,-4.6305,-4.6303,-4.6302,-4.63,-4.6298,-4.63,-4.6301,0,0,0,0,0,0,0,0,0,0,0,0,0,0,0,0,0,0,0,0,0,0,0,0,0,0,0,0,0,0,0,0,0,0,0,0,0,0,0,0,0,0,0,0,0,0,0,0,0,0,0,0,0,0,0,0,0,0,0,0,0,0,0,0,0,0,0,0,0]}]]]